STARLINK-1172, 45074

Orbit data source: Space-Track

STARLINK-1172, 45074 is a payload satellite owned by SpaceX/Seattle (US) in LEO that was launched on Wed, 29 Jan 2020 UTC via an FALCON 9 launch vehicle from the Air Force Eastern Test Range (AFETR). Payload-class satellites include a variety of spacecraft equipped with specific instruments for various scientific and technological missions. These include communications satellites like Starlink; space stations such as the ISS; scientific satellites like the Hubble; Earth observation satellites from companies like Planet Labs, Umbra, and HawkEye 360; GPS; miniature CubeSats for education and research; and military/defense satellites.

Loading next visibility...
Identifier
45074, 2020-006AG
Orbit
LEO
Last TLE update
1 day ago
Origin
Manufacturer
SpaceX/Seattle
Mission
Operational Commercial Communications
Bus & Motor
STARLINK, Unknown motor
Mass
260 kg wet, ~248 kg dry
Launch date (UTC)
2020-01-29 (5 years ago)
Launch vehicle
FALCON 9
Launch site
Air Force Eastern Test Range (AFETR)
Object type
Payload
Rocket body
Debris
Shape & HBR
Box + 1 Pan, 8.86 m
Radar Cross Section
13.562 m², Large (>1 m²)

Expand to show TLE details & history

TLE from 1 day ago
0 STARLINK-1172
1 45074U 20006AG  25132.52317103  .00003862  00000-0  27811-3 0  9994
2 45074  53.0528 178.6076 0000769 107.3977 252.7096 15.06387679291348
Epoch: 2025-05-12T12:33Z
Definitive object data (Epoch: 2025-05-12T12:33:21.976Z)
Latitude
-0.00005°
Longitude
119.73096°
Altitude
548.287 km
Speed
7.589 km/s
True Right ascension
11h 54m 25s
True Declination
0° 00' 00"
Sunlit
Object was in full shadow at TLE epoch
Visualization TLE readout
Latitude
-45.62054°
Longitude
65.16458°
Altitude
563.231 km
Speed
7.579 km/s
Apparent Right ascension
09h 13m 49s
Apparent Declination
-43° 36' 48"
Sunlit
Object is in daylight
Visualization observer readout
Local Sidereal Time
22:11:02
Azimuth
113.797° SE
Elevation
-78.725°
Doppler factor
1
Orbital elements
Apogee altitude
548.053 km
Perigee altitude
546.988 km
Semi-major axis
6,925.657 km
Eccentricity
0.0000769
Inclination
53.0528°
RAAN
178.6076°
Arg. of periapsis
107.3977°
True anomaly
252.70119°
Mean anomaly
252.7096°
Eccentric anomaly
252.70539°
Mean motion
3.76575 °/min
BSTAR
0.00027811
Orbital period
95.6 mins
Loading maneuver chart data...
Loading SW <> Apogee altitude chart data...
Loading historical data...
Loading historical data...
Loading historical data...
Loading historical data...
Loading historical data...
Loading historical data...
Loading historical data...

STARLINK-1172 Visibility forecast

Observer location: undefined°, undefined°

Span
Click to sort rows by Start time (UTC) header in descending order
Start Az.
Max El. time (UTC)
Max El. Az.
Max El.
End time (UTC)
End Az.
6 mins2025-05-14 04:31:14.347Z182.551° SSW2025-05-14 04:34:14.347Z121.358° SE24.928°2025-05-14 04:37:14.347Z72.47° E
5 mins2025-05-14 06:11:14.347Z269.225° W2025-05-14 06:13:14.347Z325.128° NNW34.037°2025-05-14 06:16:14.347Z34.007° NE
5 mins2025-05-14 11:13:14.347Z342.36° N2025-05-14 11:15:14.347Z34.036° NE28.897°2025-05-14 11:18:14.347Z91.555° ESE
6 mins2025-05-14 12:52:14.347Z285.812° WNW2025-05-14 12:54:14.347Z243.116° WSW31.407°2025-05-14 12:58:14.347Z159.347° S
|